Weather Roundup
Issued by NWS

Home | Current Version | Previous Version | Text Only | Print | Product List | Glossary On
Versions: 1 2 3 4 5 6 7 8 9 10 11 12 13 14 15 16 17 18 19 20 21 22 23 24 25 26 27 28 29 30 31 32 33 34 35 36 37 38 39 40 41 42 43 44 45 46 47 48 49 50
718
NZUS93 KARX 231259
HRRWXR

CURRENT HOURLY OBSERVATIONS ACROSS
MUCH OF THE UPPER MISSISSIPPI VALLEY
NATIONAL WEATHER SERVICE LA CROSSE WI
800 AM CDT MON OCT 23 2017


...SOUTHEAST MINNESOTA...


CITY           SKY/WX    TMP DP  RH WIND       PRES   REMARKS
ROCHESTER      CLEAR     45  38  76 S12       29.81R
ROCHESTER/MAYO FAIR      47  36  65 SE9       29.80S
WINONA         CLEAR     48  41  76 SE3       29.80F
AUSTIN         CLEAR     41  37  87 S7        29.81R
ALBERT LEA     NOT AVBL
DODGE CENTER   CLEAR     45  37  76 SW10      29.79S
PRESTON        CLEAR     46  36  67 SW14      29.82S
OWATONNA       CLEAR     45  37  76 SW8       29.80S
FARIBAULT      PTCLDY    46  36  66 S6        29.80S
$$

...ELSEWHERE IN MINNESOTA...


CITY           SKY/WX    TMP DP  RH WIND       PRES   REMARKS
MINNEAPOLIS    CLOUDY    51  37  58 SW9       29.77F
INTNL FALLS    CLOUDY    47  44  90 S5        29.60S
DULUTH         LGT RAIN  50  37  61 SW9G20    29.68S
RED WING       CLEAR     48  36  61 S3        29.78S
REDWOOD FALLS  CLOUDY    54  40  59 W18       29.82R
MANKATO        PTCLDY    49  37  63 W12       29.80F
WORTHINGTON    CLOUDY    53  40  61 W17       29.89R
FAIRMONT       CLOUDY    53  39  59 NW12      29.85R
$$

...SOUTHWEST WISCONSIN...


CITY           SKY/WX    TMP DP  RH WIND       PRES   REMARKS
LA CROSSE      CLOUDY    49  44  83 S12       29.82F
PRAIRIE DU CHI PTCLDY    40  38  96 E7        29.89R WCI  35
BOSCOBEL       FOG       41  40  96 CALM      29.90F VSB<1/4
LONE ROCK      FOG       40  40 100 CALM      29.91F VSB<1/4
PLATTEVILLE    CLOUDY    41  41 100 SE3       29.90F
FORT MC COY    PTCLDY    38  37  96 CALM      29.85F
MAUSTON-NEW LI CLOUDY    44  42  91 S5        29.88R FOG
VIROQUA        FAIR      44  42  95 SE8       29.86S
WIS DELLS      CLOUDY    39  39  99 CALM      29.90S
$$

...ELSEWHERE IN WISCONSIN...


CITY           SKY/WX    TMP DP  RH WIND       PRES   REMARKS
MILWAUKEE      LGT RAIN  51  47  86 NE5       29.90F
MADISON        CLOUDY    41  41 100 CALM      29.89F FOG
GREEN BAY      FOG       43  43 100 CALM      29.91F VSB<1/4
EAU CLAIRE     NOT AVBL
BLACK RVR FLS  FAIR      33  33 100 CALM      29.82F
MEDFORD        CLOUDY    40  38  91 SE6       29.81F
WAUSAU         CLOUDY    40  39  97 SE9       29.84F WCI  34
WIS RAPIDS     CLOUDY    41  40  96 S7        29.89R
MARSHFIELD     CLOUDY    40  37  89 S6        29.82F
RICE LAKE      PTCLDY    44  39  82 CALM      29.79S
$$

...NORTHEAST IOWA...


CITY           SKY/WX    TMP DP  RH WIND       PRES   REMARKS
WATERLOO       CLEAR     42  39  89 SE6       29.84F
DUBUQUE        CLOUDY    42  40  92 CALM      29.89F
DECORAH        CLEAR     43  39  87 S6        29.83F
MASON CITY     CLEAR     44  37  76 SW8       29.84R
CHARLES CITY   CLEAR     45  39  81 SW8       29.83S
OELWEIN        PTCLDY    45  43  93 S8        29.85F
$$

...ELSEWHERE IN IOWA...


CITY           SKY/WX    TMP DP  RH WIND       PRES   REMARKS
DES MOINES     MOCLDY    45  38  76 SW5       29.87R
IOWA CITY      CLOUDY    43  42  97 CALM      29.93F
FORT DODGE     PTCLDY    44  37  76 W5        29.85S
MARSHALLTOWN   CLEAR     41  39  93 SW5       29.84F
CEDAR RAPIDS   CLOUDY    42  41  96 S5        29.90S
$$

...NORTHERN ILLINOIS...


CITY           SKY/WX    TMP DP  RH WIND       PRES   REMARKS
CHICAGO-OHARE  LGT RAIN  51  49  92 N7        29.87S
CHICAGO-MIDWAY LGT RAIN  53  52  96 N9        29.86S
MOLINE         FOG       48  45  89 NW3       29.89F VSB 1/4
ROCKFORD       CLOUDY    49  46  90 N5        29.90F
PEORIA         CLOUDY    50  47  89 N3        29.89R
$$

NOTE: "FAIR" INDICATES FEW OR NO CLOUDS BELOW 12,000 FEET WITH NO
SIGNIFICANT WEATHER AND/OR OBSTRUCTIONS TO VISIBILITY. WIND
SPEEDS ARE IN MILES-PER-HOUR.




USA.gov is the U.S. government's official web portal to all federal, state and local government web resources and services.